Home > Weather > Roanoke > Past weeks

Flag for USA Past Weather in Roanoke, Virginia, USA — Yesterday and Last 2 Weeks

Now
68 °F

Clear.


Feels Like: 68 °F
Forecast: 66 / 88 °F
Wind: 3 mph from West

Location: Roanoke Regional Airport

Current Time: Aug 29, 2016 at 1:50:45 AM

Latest Report: Aug 29, 2016 at 12:54 AM


Visibility: 10 mi

Pressure: 30.21 "Hg

Humidity: 84%

Dew Point: 63 °F

Location of RoanokeLocation

Past Weather in Roanoke — Graph

°F

Roanoke Temperature Yesterday

Maximum temperature yesterday: 89 °F (at 2:54 PM)
Minimum temperature yesterday: 71 °F (at 5:54 AM)
Average temperature yesterday: 80 °F

High & Low Weather Summary for the Past Weeks

 TemperatureHumidityPressure
High93 °F (Aug 14, 2:54 PM)100% (Aug 21, 3:54 AM)30.35 "Hg (Aug 21, 3:54 AM)
Low60 °F (Aug 23, 5:54 AM)35% (Aug 28, 4:54 PM)29.82 "Hg (Aug 21, 4:54 AM)
Average77 °F74%30.12 "Hg
* Reported Aug 13 11:54 PM — Aug 28 11:54 PM, Roanoke, Weather by CustomWeather, © 2016

Note: Actual official high and low records may vary slightly from our data, if they occured in-between our weather recording intervals... More about our weather records

Advertising

Roanoke Weather History for the Previous 24 Hours

Scroll right to see more
 ConditionsComfort  
Time TempWeatherWind HumidityBarometerVisibility
11:54 PM
Sun, Aug 28
73 °FClear.3 mph71%30.20 "Hg10 mi
10:54 PM71 °FClear.No wind71%30.19 "Hg10 mi
9:54 PM76 °FClear.No wind56%30.18 "Hg10 mi
8:54 PM81 °FPassing clouds.No wind42%30.16 "Hg10 mi
7:54 PM84 °FScattered clouds.5 mph36%30.15 "Hg10 mi
6:54 PM85 °FPassing clouds.8 mph36%30.14 "Hg10 mi
5:54 PM88 °FPassing clouds.12 mph36%30.14 "Hg10 mi
4:54 PM89 °FPassing clouds.10 mph35%30.15 "Hg10 mi
3:54 PM89 °FPassing clouds.9 mph38%30.16 "Hg10 mi
2:54 PM89 °FPassing clouds.No wind43%30.19 "Hg10 mi
1:54 PM87 °FSunny.3 mph46%30.21 "Hg10 mi
12:54 PM86 °FPassing clouds.5 mph49%30.23 "Hg10 mi
11:54 AM85 °FSunny.No wind51%30.24 "Hg10 mi
10:54 AM82 °FPassing clouds.No wind56%30.25 "Hg10 mi
9:54 AM79 °FPassing clouds.No wind65%30.26 "Hg10 mi
8:54 AM76 °FPartly sunny.3 mph72%30.26 "Hg10 mi
7:54 AM72 °FPassing clouds.5 mph87%30.24 "Hg10 mi
6:54 AM73 °FClear.No wind79%30.22 "Hg10 mi
5:54 AM71 °FClear.3 mph84%30.20 "Hg10 mi
4:54 AM74 °FClear.No wind76%30.19 "Hg10 mi
3:54 AM76 °FPassing clouds.3 mph72%30.20 "Hg10 mi
2:54 AM77 °FMostly cloudy.No wind69%30.21 "Hg10 mi
1:54 AM77 °FPassing clouds.5 mph71%30.19 "Hg10 mi
Weather by CustomWeather, © 2016

See weather overviewHow to use our weather pages